This demonstration page uses our WeatherBlox Daily Observations layout. Learn more.

Left ArrowRight Arrow

39.95233, -75.16379

Hourly Observations for July 5, 2022

Temp ( °F °C ) Dew Point ( °F °C ) Humidity (%) Winds ( mph kmh ) Pressure ( in mb ) Visibility ( mi km ) Precip ( " mm )
12:54 am 00:54 Cloudy 75 23.9 60 15.6 60 60 S 6 9 30.13 1020 10 16 0.00 0.00
1:54 am 01:54 Partly Cloudy 73 22.8 61 16.1 66 66 SSW 8 13 30.12 1020 10 16 0.00 0.00
2:54 am 02:54 Cloudy 72 22.2 60 15.6 66 66 SSW 7 11 30.11 1020 10 16 0.00 0.00
3:54 am 03:54 Cloudy 73 22.8 61 16.1 66 66 SSW 6 9 30.11 1020 10 16 0.00 0.00
4:54 am 04:54 Cloudy 72 22.2 63 17.2 73 73 SSW 7 11 30.10 1019 10 16 0.00 0.00
5:54 am 05:54 Mostly Cloudy 72 22.2 65 18.3 79 79 SSW 5 7 30.11 1020 10 16 0.00 0.00
6:54 am 06:54 Mostly Cloudy 72 22.2 66 18.9 82 82 SSW 6 9 30.12 1020 10 16 0.00 0.00
7:54 am 07:54 Mostly Cloudy 74 23.3 67 19.4 79 79 S 6 9 30.11 1020 10 16 0.00 0.00
8:54 am 08:54 Mostly Cloudy 78 25.6 68 20 71 71 SSW 6 9 30.09 1019 10 16 0.00 0.00
9:54 am 09:54 Mostly Cloudy 82 27.8 66 18.9 58 58 SSW 10 17 30.07 1018 10 16 0.00 0.00
10:54 am 10:54 Mostly Cloudy 84 28.9 65 18.3 53 53 S 16 26 30.04 1017 10 16 0.00 0.00
11:54 am 11:54 Mostly Cloudy 87 30.6 65 18.3 48 48 SSW 12 19 30.03 1017 10 16 0.00 0.00
12:54 pm 12:54 Mostly Cloudy 89 31.7 67 19.4 48 48 SSW 17 28 29.99 1016 10 16 0.00 0.00
1:54 pm 13:54 Cloudy 86 30 66 18.9 51 51 SSW 16 26 29.97 1015 10 16 0.00 0.00
2:54 pm 14:54 Mostly Cloudy 85 29.4 68 20 57 57 S 17 28 29.93 1014 10 16 0.00 0.00
3:54 pm 15:54 Cloudy 85 29.4 68 20 57 57 S 17 28 29.91 1013 10 16 0.00 0.00
4:54 pm 16:54 Cloudy with Light Rain 82 27.8 71 21.7 69 69 S 10 17 29.91 1013 8 13 0.01 0.25
5:47 pm 17:47 Cloudy with Heavy Rain 77 25 69 20.6 77 77 SW 17 28 29.92 1013 2 2 0.00 0.00
5:54 pm 17:54 Cloudy with Rain 75 23.9 68 20 79 79 SSW 6 9 29.90 1013 3 5 0.09 2.29
6:02 pm 18:02 Mostly Cloudy with Light Rain 76 24.4 69 20.6 79 79 SSW 7 11 29.90 1012 7 11 0.03 0.76
6:54 pm 18:54 Cloudy 77 25 70 21.1 79 79 SSW 10 17 29.90 1012 10 16 0.03 0.76
7:54 pm 19:54 Cloudy 77 25 70 21.1 79 79 SSW 6 9 29.88 1012 10 16 0.00 0.00
8:44 pm 20:44 Cloudy 77 25 71 21.7 82 82 SSW 9 15 29.88 1012 10 16 0.00 0.00
8:54 pm 20:54 Cloudy 77 25 72 22.2 85 85 S 13 20 29.88 1012 10 16 0.00 0.00
9:01 pm 21:01 Cloudy 76 24.4 71 21.7 85 85 SSW 10 17 29.88 1012 10 16 0.00 0.00
9:45 pm 21:45 Cloudy 76 24.4 71 21.7 85 85 SSW 10 17 29.89 1012 10 16 0.00 0.00
9:54 pm 21:54 Cloudy 76 24.4 71 21.7 85 85 SSW 10 17 29.89 1012 10 16 0.00 0.00
10:05 pm 22:05 Cloudy 76 24.4 71 21.7 85 85 SSW 8 13 29.89 1012 10 16 0.00 0.00
10:36 pm 22:36 Mostly Cloudy 76 24.4 71 21.7 85 85 S 7 11 29.87 1011 10 16 0.00 0.00
10:42 pm 22:42 Mostly Cloudy 75 23.9 71 21.7 88 88 S 8 13 29.87 1011 10 16 0.00 0.00
10:54 pm 22:54 Cloudy 75 23.9 71 21.7 88 88 SSW 8 13 29.86 1011 10 16 0.00 0.00
11:02 pm 23:02 Cloudy 75 23.9 71 21.7 88 88 SSW 7 11 29.86 1011 10 16 0.00 0.00
11:26 pm 23:26 Cloudy 75 23.9 71 21.7 88 88 SSW 10 17 29.86 1011 10 16 0.00 0.00
11:47 pm 23:47 Cloudy 75 23.9 71 21.7 88 88 SSW 8 13 29.86 1011 8 13 0.00 0.00
11:54 pm 23:54 Cloudy 75 23.9 71 21.7 88 88 SSW 8 13 29.86 1011 8 13 0.00 0.00

Powered by AerisWeather